Weather History for Butte, MT

Change the Weather History Date:

Saturday, March 2, 2013

  Actual Average Record
Temperature  
Mean Temperature 36 °F 26 °F  
Max Temperature 50 °F 39 °F 60 °F (1905)
Min Temperature 22 °F 14 °F -31 °F (1943)
Degree Days  
Heating Degree Days 29 39  
Month to date heating degree days 55 78  
Since 1 July heating degree days 6433 6647  
Cooling Degree Days 0 0  
Month to date cooling degree days 0 0  
Year to date cooling degree days 0 0  
Moisture  
Dew Point 25 °F    
Average Humidity 64    
Maximum Humidity 92    
Minimum Humidity 36    
Precipitation  
Precipitation 0.00 in 0.02 in 0.46 in (1982)
Month to date precipitation 0.00 0.04  
Year to date precipitation 0.40 0.94  
Sea Level Pressure  
Sea Level Pressure 30.19 in    
Wind  
Wind Speed 3 mph (East)    
Max Wind Speed 10 mph    
Max Gust Speed 13 mph    
Visibility 10 miles    
Events      
T = Trace of Precipitation, MM = Missing Value Source: NWS Daily Summary

Daily Weather History Graph

Daily Weather History Graph

Search for Another Location

Airport:

Trip Planner

Search our weather history database for the weather conditions in past years. The results will help you decide how hot, cold, wet, or windy it might be!

Date:

Astronomy

Mar. 02, 2013 Rise Set
Actual Time 7:06 AM MST 6:18 PM MST
Civil Twilight 6:36 AM MST 6:48 PM MST
Nautical Twilight 6:01 AM MST 7:22 PM MST
Astronomical Twilight 5:27 AM MST 7:57 PM MST
Moon No Moon Rise 9:18 AM MST (3/2)
Length of Visible Light 12h 11m
Length of Day
11h 12m
Waning Gibbous, 73% of the Moon is Illuminated
Mar 2
Waning Gibbous
Mar 4
Last Quarter
Mar 11
New
Mar 19
First Quarter
Mar 27
Full

Hourly Weather History & Observations

Time (MST) Temp. Windchill Dew Point Humidity Pressure Visibility Wind Dir Wind Speed Gust Speed Precip Events Conditions
12:53 AM 28.9 °F 25.2 °F 24.1 °F 82% 30.38 in 10.0 mi Variable 3.5 mph - N/A   Clear
1:53 AM 26.6 °F - 21.2 °F 80% 30.33 in 10.0 mi Calm Calm - N/A   Clear
2:53 AM 27.0 °F - 21.9 °F 81% 30.36 in 10.0 mi Calm Calm - N/A   Clear
3:53 AM 25.0 °F 19.3 °F 21.0 °F 85% 30.35 in 10.0 mi East 4.6 mph - N/A   Clear
4:53 AM 24.8 °F - 19.4 °F 80% 30.30 in 10.0 mi Calm Calm - N/A   Clear
5:53 AM 24.1 °F 17.0 °F 19.9 °F 84% 30.37 in 10.0 mi ESE 5.8 mph - N/A   Clear
6:53 AM 26.1 °F 21.9 °F 21.0 °F 81% 30.36 in 10.0 mi East 3.5 mph - N/A   Clear
7:53 AM 21.2 °F 14.9 °F 19.4 °F 93% 30.28 in 10.0 mi SSE 4.6 mph - N/A   Clear
8:53 AM 28.9 °F 23.9 °F 24.1 °F 82% 30.34 in 10.0 mi SE 4.6 mph - N/A   Clear
9:53 AM 34.0 °F 31.0 °F 26.1 °F 73% 30.31 in 10.0 mi East 3.5 mph - N/A   Clear
10:53 AM 37.0 °F - 25.0 °F 62% 30.27 in 10.0 mi Calm Calm - N/A   Clear
11:53 AM 45.0 °F - 27.0 °F 49% 30.23 in 10.0 mi Calm Calm - N/A   Mostly Cloudy
12:53 PM 48.9 °F - 26.1 °F 41% 30.18 in 10.0 mi Calm Calm - N/A   Scattered Clouds
1:53 PM 48.9 °F - 26.1 °F 41% 30.14 in 10.0 mi NNW 4.6 mph - N/A   Mostly Cloudy
2:53 PM 48.9 °F - 26.1 °F 41% 30.12 in 10.0 mi North 9.2 mph - N/A   Partly Cloudy
3:53 PM 50.0 °F - 25.0 °F 38% 30.09 in 10.0 mi Calm Calm - N/A   Mostly Cloudy
4:53 PM 48.0 °F - 26.1 °F 42% 30.07 in 10.0 mi Calm Calm - N/A   Clear
5:53 PM 44.1 °F 41.5 °F 28.0 °F 53% 30.07 in 10.0 mi Variable 4.6 mph - N/A   Clear
6:53 PM 43.0 °F - 27.0 °F 53% 30.05 in 10.0 mi Calm Calm - N/A   Clear
7:53 PM 37.9 °F 35.5 °F 28.0 °F 68% 30.08 in 10.0 mi SSW 3.5 mph - N/A   Clear
8:53 PM 37.0 °F 31.6 °F 28.0 °F 70% 30.02 in 10.0 mi South 6.9 mph - N/A   Partly Cloudy
9:53 PM 37.0 °F 32.4 °F 27.0 °F 67% 29.98 in 10.0 mi NNW 5.8 mph - N/A   Scattered Clouds
10:53 PM 33.1 °F 30.0 °F 27.0 °F 78% 29.96 in 10.0 mi Variable 3.5 mph - N/A   Overcast
11:53 PM 32.0 °F 28.7 °F 27.0 °F 82% 29.92 in 10.0 mi North 3.5 mph - N/A   Overcast